Skip Page Navigation
NASA JPL Caltech
NASA Logo - Jet Propulsion Laboratory + View the NASA Portal
+ Center for Near-Earth Object Studies
JPL Home Earth Solar System Stars & Galaxies Technology
JPL Solar System Dynamics
BODIES ORBITS EPHEMERIDES TOOLS PHYSICAL DATA DISCOVERY FAQ SITE MAP
IMPORTANT: The SSD Announcement email list is now available. Major changes are coming in the near future, including possible hostname and/or URL changes. To be notified of such changes, subscribe to this email list.

Please visit this page for more details.


JPL Small-Body Database Browser
Search: [ help ]  
66862 (1999 VL37)
Classification: Main-belt Asteroid          SPK-ID: 2066862
Ephemeris | Orbit Diagram | Orbital Elements | Mission Design | Physical Parameters | Discovery Circumstances ]

[ show orbit diagram ]
Orbital Elements at Epoch 2459000.5 (2020-May-31.0) TDB
Reference: JPL 21 (heliocentric ecliptic J2000)
 Element Value Uncertainty (1-sigma)   Units 
e .1488301251679928 4.7618e-08  
a 2.686932106912361 1.7022e-08 au
q 2.287035665122696 1.2582e-07 au
i 7.120832578614419 4.7878e-06 deg
node 241.593793152403 3.9595e-05 deg
peri 158.9259045785483 4.303e-05 deg
M 261.6725771460625 1.852e-05 deg
tp 2459439.895517281023
(2021-Aug-13.39551728)
8.507e-05 TDB
period 1608.731131458041
4.40
1.5287e-05
4.185e-08
d
yr
n .2237788484106237 2.1265e-09 deg/d
Q 3.086828548702027 1.9556e-08 au
  Orbit Determination Parameters
   # obs. used (total)      706  
   data-arc span      15130 days (41.42 yr)  
   first obs. used      1977-12-07  
   last obs. used      2019-05-11  
   planetary ephem.      DE431  
   SB-pert. ephem.      SB431-N16  
   condition code      0  
   norm. resid. RMS      .52051  
   source      ORB  
   producer      Otto Matic  
   solution date      2019-May-30 05:29:03  

Additional Information
 Earth MOID = 1.29723 au 
 Jupiter MOID = 2.31453 au 
 T_jup = 3.347 
[ show covariance matrix ]

Ephemeris | Orbit Diagram | Orbital Elements | Mission Design | Physical Parameters | Discovery Circumstances ]

Physical Parameter Table
Parameter Symbol Value Units Sigma Reference Notes
absolute magnitude H 14.7   n/a MPO341123  

66862 (1999 VL37)          Discovered 1999-Nov-03 by LINEAR at Socorro
Reference: 20030910/Numbers.arcLast Updated: 2004-04-19

Alternate Designations
 1999 VL37 = 1977 XB3 = 1987 BW2 = 1998 MN2 
Ephemeris | Orbit Diagram | Orbital Elements | Mission Design | Physical Parameters | Discovery Circumstances ]
ABOUT SSD CREDITS/AWARDS PRIVACY/COPYRIGHT GLOSSARY LINKS
FirstGov 2020-Feb-21 01:09 UT
(server date/time)  
NASA Home Page
Site Manager:   Ryan S. Park
Webmaster  Alan B. Chamberlin